This demonstration page uses our WeatherBlox Daily Observations layout. Learn more.

Left ArrowRight Arrow

Hourly Observations for May 31, 2017

Temp ( °F °C ) Dew Point ( °F °C ) Humidity (%) Winds ( mph kmh ) Pressure ( in mb ) Visibility ( mi km ) Precip ( " mm )
12:52 am 00:52 Cloudy with Rain 63 17.2 59 15 87 87 ENE 14 22 30.06 1018 8 13 0.02 0.51
1:52 am 01:52 Partly Cloudy 61 16.1 58 14.4 90 90 E 8 13 30.05 1018 10 16 0.00 0.03
2:52 am 02:52 Partly Cloudy 61 16.1 57 13.9 87 87 S 9 15 30.03 1017 10 16 0.00 0.03
3:52 am 03:52 Clear 59 15 57 13.9 93 93 NE 3 6 30.05 1018 10 16 0.00 0.00
4:52 am 04:52 Mostly Clear 57 13.9 56 13.3 96 96 SSE 6 9 30.05 1018 10 16 0.00 0.00
5:52 am 05:52 Partly Cloudy 59 15 57 13.9 93 93 S 7 11 30.05 1018 10 16 0.00 0.00
6:10 am 06:10 Mostly Cloudy with Nearby Thunderstorms 61 16.1 56 13.3 84 84 NE 8 13 30.09 1019 10 16 0.00 0.00
6:40 am 06:40 Cloudy with Light Rain 61 16.1 57 13.9 87 87 SSE 7 11 30.12 1020 10 16 0.00 0.03
6:52 am 06:52 Cloudy 60 15.6 58 14.4 93 93 SSE 12 19 30.07 1018 10 16 0.00 0.03
7:52 am 07:52 Sunny 68 20 59 15 73 73 S 9 15 30.07 1018 10 16 0.00 0.00
8:52 am 08:52 Sunny 70 21.1 60 15.6 71 71 S 12 19 30.06 1018 10 16 0.00 0.00
9:52 am 09:52 Sunny with Nearby Thunderstorms 70 21.1 57 13.9 64 64 W 16 26 30.10 1019 10 16 0.00 0.00
10:16 am 10:16 Mostly Cloudy with Light Rain 65 18.3 56 13.3 73 73 W 14 22 30.09 1019 10 16 0.00 0.03
10:26 am 10:26 Cloudy with Nearby Thunderstorms 64 17.8 57 13.9 78 78 WNW 13 20 30.12 1020 8 13 0.01 0.25
10:36 am 10:36 Cloudy with Heavy Rain 64 17.8 55 12.8 73 73 NNW 20 31 30.12 1020 3 5 0.06 1.52
10:52 am 10:52 Cloudy with Nearby Thunderstorms 65 18.3 57 13.9 76 76 NNW 12 19 30.12 1020 10 16 0.07 1.78
11:09 am 11:09 Cloudy with Light Rain 65 18.3 59 15 81 81 SSE 13 20 30.09 1019 5 8 0.02 0.51
11:52 am 11:52 Mostly Cloudy 69 20.6 60 15.6 73 73 SW 6 9 30.10 1019 10 16 0.03 0.76
12:52 pm 12:52 Partly Cloudy 73 22.8 63 17.2 71 71 S 9 15 30.07 1018 10 16 0.00 0.00
1:52 pm 13:52 Sunny 78 25.6 60 15.6 54 54 SSW 8 13 30.05 1018 10 16 0.00 0.00
2:52 pm 14:52 Mostly Cloudy 79 26.1 59 15 50 50 ENE 5 7 30.04 1017 10 16 0.00 0.00
3:52 pm 15:52 Sunny 77 25 58 14.4 52 52 SSW 3 6 30.05 1018 10 16 0.00 0.00
4:52 pm 16:52 Mostly Cloudy 76 24.4 63 17.2 64 64 N 10 17 30.06 1018 10 16 0.00 0.03
5:52 pm 17:52 Cloudy with Light Rain 67 19.4 61 16.1 81 81 NNE 15 24 30.09 1019 10 16 0.00 0.03
6:10 pm 18:10 Cloudy 67 19.4 61 16.1 81 81 ESE 12 19 30.03 1017 10 16 0.00 0.03
6:52 pm 18:52 Sunny 68 20 61 16.1 78 78 ESE 5 7 30.05 1018 10 16 0.00 0.03
7:52 pm 19:52 Partly Cloudy 67 19.4 62 16.7 84 84 Calm 30.04 1017 10 16 0.00 0.00
8:52 pm 20:52 Clear 65 18.3 60 15.6 84 84 S 6 9 30.03 1017 10 16 0.00 0.00
9:52 pm 21:52 Mostly Cloudy 65 18.3 60 15.6 84 84 SSW 7 11 30.05 1018 10 16 0.00 0.00
10:52 pm 22:52 Mostly Clear 65 18.3 60 15.6 84 84 SSW 9 15 30.08 1019 10 16 0.00 0.00
11:52 pm 23:52 Clear 64 17.8 60 15.6 87 87 Calm 30.06 1018 10 16 0.00 0.00

Powered by AerisWeather